Location: Innerarity Island Observatory
(30.3139°N, 87.4867°W)
Time: 21:25:32
(UTC-05:00)

Amateur Radio Satellites - All Passes

Search period start: 01 August 2014 20:55
Search period end: 02 August 2014 20:55
Location: Innerarity Island Observatory, 30.3139°N, 87.4867°W

Satellite Date Start Highest point End Downlink Frequencies (MHz)
Time Altitude Azimuth
Oscar 11 01 Aug 21:15:13 21:18:44 25° 72° (ENE) 21:22:16 145.825 FM, Beacon 2401.500 USB
HO-68 01 Aug 21:17:23 21:24:34 86° 255° (WSW) 21:31:45 435.675 MHz FM
RS-15 01 Aug 21:26:45 21:37:03 41° 54° (NE) 21:47:39 29.354 - 29.394 USB, Beacon 29.352 USB
UOSAT-12 01 Aug 21:45:14 21:47:58 15° 51° (NE) 21:50:40 437.025 FM, 437.400 FM
SO-50 01 Aug 21:46:19 21:50:40 35° 248° (WSW) 21:55:02 436.795 FM
ISS 01 Aug 21:48:11 21:51:20 41° 317° (NW) 21:54:31 145.800 FM
FUNcube-1 01 Aug 21:48:35 21:51:49 21° 72° (ENE) 21:55:00 145.950 - 145.970 MHz USB
UKube-1 01 Aug 22:10:19 22:14:06 29° 262° (W) 22:17:55 145.840 MHz, 145.915 MHz
PCSat 01 Aug 22:15:31 22:17:37 12° 103° (ESE) 22:19:42 145.825 MHz
Oscar 11 01 Aug 22:51:43 22:54:50 20° 264° (W) 22:57:58 145.825 FM, Beacon 2401.500 USB
HO-68 01 Aug 23:12:17 23:12:55 10° 268° (W) 23:13:33 435.675 MHz FM
Sapphire 01 Aug 23:22:11 23:27:27 58° 111° (ESE) 23:32:45 437.095 MHz 1200 baud AX-25 AFSK
UOSAT-12 01 Aug 23:23:50 23:28:23 50° 246° (WSW) 23:32:50 437.025 FM, 437.400 FM
FUNcube-1 01 Aug 23:24:36 23:28:03 23° 263° (W) 23:31:27 145.950 - 145.970 MHz USB
RS-15 01 Aug 23:38:56 23:49:25 49° 251° (WSW) 00:00:23 29.354 - 29.394 USB, Beacon 29.352 USB
Oscar 10/S400 01 Aug 23:45:19 00:12:25 83° 180° (S) 10:01:49 145.825 - 145.975 CW/USB, Beacon 145.810 USB
PCSat 01 Aug 23:55:04 00:00:24 62° 296° (WNW) 00:05:46 145.825 MHz
AO-40 02 Aug 00:57:41 02:42:24 18° 109° (ESE) 03:43:06 Beacon 2401.320
Sapphire 02 Aug 01:08:00 01:11:13 16° 306° (NW) 01:14:26 437.095 MHz 1200 baud AX-25 AFSK
Oscar 19 02 Aug 01:27:53 01:31:44 21° 96° (E) 01:35:34 437.125 CW, 437.150 USB
PANSAT 02 Aug 01:28:17 01:31:12 20° 158° (SSE) 01:34:06 not established
Oscar 16 02 Aug 01:56:08 02:01:04 44° 100° (E) 02:06:00 437.025 USB, Beacon 2401.1428
JAS-1B 02 Aug 01:59:21 02:04:19 17° 88° (E) 02:08:49 435.800 - 435.900 CW/SSB
ITAMSAT 1 02 Aug 02:26:17 02:31:01 36° 99° (E) 02:35:43 435.822 SSB
Uribyol 2 02 Aug 02:44:17 02:49:24 61° 101° (ESE) 02:54:28 436.500 FM
AO-27 02 Aug 02:46:23 02:51:30 61° 101° (ESE) 02:56:35 436.795 MHz FM
AO-Echo 02 Aug 02:48:07 02:53:02 67° 101° (E) 02:57:47 ?
Oscar 19 02 Aug 03:06:24 03:11:04 35° 288° (WNW) 03:15:43 437.125 CW, 437.150 USB
TMSAT-1 02 Aug 03:06:58 03:11:18 26° 97° (E) 03:15:38 436.925 FM
PANSAT 02 Aug 03:07:18 03:11:03 51° 169° (S) 03:14:49 not established
OPAL 02 Aug 03:18:31 03:22:19 23° 67° (ENE) 03:26:08 ?
Gurwin Techsat 1B 02 Aug 03:33:28 03:38:47 72° 102° (ESE) 03:44:03 435.225 FM
KITSAT 1 02 Aug 03:35:15 03:39:22 15° 102° (ESE) 03:43:28 435.175 FM
Oscar 16 02 Aug 03:36:46 03:40:00 17° 293° (WNW) 03:43:15 437.025 USB, Beacon 2401.1428
AO-7 02 Aug 03:38:12 03:42:11 14° 94° (E) 03:46:09 29.400 - 29.500 MHz
JAS-1B 02 Aug 03:47:01 03:55:50 75° 287° (WNW) 04:03:09 435.800 - 435.900 CW/SSB
ITAMSAT 1 02 Aug 04:06:28 04:10:13 21° 292° (WNW) 04:13:57 435.822 SSB
ISS 02 Aug 04:22:12 04:24:11 15° 35° (NE) 04:26:10 145.800 FM
Uribyol 2 02 Aug 04:26:14 04:28:17 12° 295° (WNW) 04:30:21 436.500 FM
AO-27 02 Aug 04:28:21 04:30:26 12° 295° (WNW) 04:32:30 436.795 MHz FM
TMSAT-1 02 Aug 04:46:36 04:51:07 29° 289° (WNW) 04:55:37 436.925 FM
PANSAT 02 Aug 04:47:17 04:51:08 67° 182° (S) 04:54:59 not established
Uosat F 02 Aug 04:48:52 04:53:47 56° 101° (E) 04:58:40 435.120 FM
OPAL 02 Aug 04:56:41 05:00:59 30° 260° (W) 05:05:19 ?
MaSat-1 02 Aug 05:07:37 05:10:34 15° 56° (NE) 05:13:23 437.345 MHz
Gurwin Techsat 1B 02 Aug 05:16:42 05:18:04 11° 295° (WNW) 05:19:25 435.225 FM
KITSAT 1 02 Aug 05:25:39 05:33:45 83° 295° (WNW) 05:41:54 435.175 FM
AO-7 02 Aug 05:27:18 05:35:38 86° 288° (WNW) 05:43:55 29.400 - 29.500 MHz
JAS-1B 02 Aug 05:41:18 05:44:28 13° 306° (NW) 05:47:30 435.800 - 435.900 CW/SSB
STRAND 1 02 Aug 05:49:36 05:52:50 17° 67° (ENE) 05:56:04 ?
Hamsat 02 Aug 05:53:13 05:56:11 18° 95° (E) 05:59:09 145.90 MHz
JAS-2 02 Aug 05:57:28 06:00:42 16° 93° (E) 06:03:50 435.800 - 435.900 CW/SSB, 435.910 FM
ISS 02 Aug 05:57:51 06:01:03 43° 230° (SW) 06:04:15 145.800 FM
Saudisat 1A 02 Aug 06:12:33 06:16:57 88° 117° (ESE) 06:21:23 436.775 MHz
PANSAT 02 Aug 06:27:31 06:31:09 39° 195° (SSW) 06:34:47 not established
Uosat F 02 Aug 06:29:55 06:32:01 13° 294° (WNW) 06:34:07 435.120 FM
MaSat-1 02 Aug 06:43:14 06:48:16 54° 253° (WSW) 06:52:48 437.345 MHz
AO-7 02 Aug 07:23:03 07:27:13 15° 304° (WNW) 07:31:23 29.400 - 29.500 MHz
KITSAT 1 02 Aug 07:25:42 07:30:17 16° 314° (NW) 07:34:54 435.175 FM
STRAND 1 02 Aug 07:26:44 07:31:37 44° 260° (W) 07:36:31 ?
Hamsat 02 Aug 07:28:23 07:32:06 28° 287° (WNW) 07:35:49 145.90 MHz
JAS-2 02 Aug 07:40:53 07:46:05 42° 288° (WNW) 07:50:57 435.800 - 435.900 CW/SSB, 435.910 FM
SO-67 02 Aug 07:56:17 07:59:46 90° 119° (ESE) 08:03:13 435.3500 MHz FM
PANSAT 02 Aug 08:08:57 08:10:55 14° 205° (SSW) 08:12:53 not established
Sapphire 02 Aug 08:17:35 08:20:37 15° 53° (NE) 08:23:38 437.095 MHz 1200 baud AX-25 AFSK
PCSat 02 Aug 08:49:09 08:53:56 31° 59° (ENE) 08:58:42 145.825 MHz
HO-68 02 Aug 08:52:33 08:58:11 25° 97° (E) 09:03:46 435.675 MHz FM
Sapphire 02 Aug 09:59:05 10:04:25 62° 249° (WSW) 10:09:44 437.095 MHz 1200 baud AX-25 AFSK
UKube-1 02 Aug 10:03:41 10:08:02 74° 102° (ESE) 10:12:20 145.840 MHz, 145.915 MHz
SO-50 02 Aug 10:16:18 10:19:44 22° 110° (ESE) 10:23:12 436.795 FM
PCSat 02 Aug 10:32:42 10:37:10 27° 253° (WSW) 10:41:36 145.825 MHz
HO-68 02 Aug 10:39:12 10:45:59 49° 290° (WNW) 10:52:45 435.675 MHz FM
Oscar 11 02 Aug 10:43:41 10:48:00 70° 283° (WNW) 10:52:19 145.825 FM, Beacon 2401.500 USB
FUNcube-1 02 Aug 11:18:18 11:22:31 80° 282° (WNW) 11:26:49 145.950 - 145.970 MHz USB
RS-15 02 Aug 11:42:58 11:53:25 46° 108° (ESE) 12:03:32 29.354 - 29.394 USB, Beacon 29.352 USB
UOSAT-12 02 Aug 11:51:40 11:54:06 14° 108° (ESE) 11:56:33 437.025 FM, 437.400 FM
SO-50 02 Aug 11:56:19 12:00:05 27° 304° (NW) 12:03:56 436.795 FM
JAS-1B 02 Aug 12:39:22 12:41:51 11° 53° (NE) 12:44:22 435.800 - 435.900 CW/SSB
Oscar 19 02 Aug 12:40:01 12:43:17 17° 68° (ENE) 12:46:33 437.125 CW, 437.150 USB
Oscar 16 02 Aug 13:07:42 13:12:19 36° 72° (ENE) 13:16:58 437.025 USB, Beacon 2401.1428
KITSAT 1 02 Aug 13:27:00 13:32:23 19° 48° (NE) 13:37:44 435.175 FM
UOSAT-12 02 Aug 13:29:27 13:33:48 43° 301° (WNW) 13:38:15 437.025 FM, 437.400 FM
ITAMSAT 1 02 Aug 13:38:53 13:43:25 31° 71° (ENE) 13:47:57 435.822 SSB
AO-Echo 02 Aug 13:54:44 13:59:48 48° 74° (ENE) 14:04:54 ?
RS-15 02 Aug 13:55:15 14:05:37 43° 306° (NW) 14:15:52 29.354 - 29.394 USB, Beacon 29.352 USB
Uribyol 2 02 Aug 13:56:31 14:01:31 51° 74° (ENE) 14:06:32 436.500 FM
AO-27 02 Aug 13:58:50 14:03:52 52° 74° (ENE) 14:08:55 436.795 MHz FM
Oscar 19 02 Aug 14:17:25 14:22:14 42° 261° (W) 14:27:04 437.125 CW, 437.150 USB
JAS-1B 02 Aug 14:21:29 14:30:10 61° 71° (ENE) 14:39:48 435.800 - 435.900 CW/SSB
TMSAT-1 02 Aug 14:22:29 14:26:36 24° 69° (ENE) 14:30:43 436.925 FM
AO-7 02 Aug 14:32:47 14:36:16 13° 55° (NE) 14:39:45 29.400 - 29.500 MHz
Saudisat 1A 02 Aug 14:46:11 14:48:42 15° 52° (NE) 14:51:12 436.775 MHz
Oscar 16 02 Aug 14:48:03 14:51:41 20° 264° (W) 14:55:21 437.025 USB, Beacon 2401.1428
Gurwin Techsat 1B 02 Aug 14:48:48 14:54:02 64° 75° (ENE) 14:59:17 435.225 FM
ITAMSAT 1 02 Aug 15:18:43 15:22:50 24° 263° (W) 15:26:59 435.822 SSB
KITSAT 1 02 Aug 15:20:33 15:28:39 83° 246° (WSW) 15:36:41 435.175 FM
AO-Echo 02 Aug 15:35:36 15:38:43 16° 266° (W) 15:41:51 ?
Uribyol 2 02 Aug 15:38:33 15:41:11 14° 266° (W) 15:43:48 436.500 FM
AO-27 02 Aug 15:40:58 15:43:35 14° 266° (W) 15:46:12 436.795 MHz FM
Uosat F 02 Aug 15:56:32 16:01:15 42° 73° (ENE) 16:06:00 435.120 FM
TMSAT-1 02 Aug 16:01:34 16:06:17 33° 262° (W) 16:11:01 436.925 FM
JAS-1B 02 Aug 16:13:46 16:20:59 28° 267° (W) 16:28:55 435.800 - 435.900 CW/SSB
AO-7 02 Aug 16:19:22 16:27:42 79° 72° (ENE) 16:36:04 29.400 - 29.500 MHz
Saudisat 1A 02 Aug 16:24:17 16:28:27 44° 247° (WSW) 16:32:36 436.775 MHz
Gurwin Techsat 1B 02 Aug 16:32:43 16:34:18 11° 267° (W) 16:35:53 435.225 FM
OPAL 02 Aug 17:11:19 17:16:25 72° 286° (WNW) 17:21:34 ?
KITSAT 1 02 Aug 17:20:47 17:22:51 11° 260° (W) 17:24:55 435.175 FM
Uosat F 02 Aug 17:37:04 17:40:08 16° 265° (W) 17:43:13 435.120 FM
JAS-2 02 Aug 17:44:03 17:51:19 45° 72° (ENE) 17:58:07 435.800 - 435.900 CW/SSB, 435.910 FM
Hamsat 02 Aug 18:15:24 18:19:34 83° 258° (WSW) 18:23:46 145.90 MHz
AO-7 02 Aug 18:16:08 18:21:02 17° 265° (W) 18:25:57 29.400 - 29.500 MHz
SO-67 02 Aug 18:26:02 18:27:19 12° 71° (ENE) 18:28:36 435.3500 MHz FM
MaSat-1 02 Aug 18:53:31 18:55:20 13° 99° (E) 18:57:17 437.345 MHz
JAS-2 02 Aug 19:29:34 19:36:14 31° 263° (W) 19:42:36 435.800 - 435.900 CW/SSB, 435.910 FM
STRAND 1 02 Aug 19:42:57 19:48:03 80° 284° (WNW) 19:53:07 ?
SO-67 02 Aug 19:57:09 20:00:05 26° 263° (W) 20:03:01 435.3500 MHz FM
MaSat-1 02 Aug 20:28:18 20:32:00 37° 297° (WNW) 20:36:17 437.345 MHz
SO-50 02 Aug 20:32:23 20:37:06 56° 61° (ENE) 20:41:50 436.795 FM
